�������l�o���
Date,Time,MP-1(��Sv/h),MP-2(��Sv/h),MP-3(��Sv/h),MP-4(��Sv/h),MP-5(��Sv/h),MP-6(��Sv/h),MP-7(��Sv/h),MP-8(��Sv/h),����,����(m/s),���J
2017/04/12,00:00,0.981,1.556,1.068,1.867,1.253,0.534,0.968,0.906,�k�k��,9.2,�L
2017/04/12,00:10,0.980,1.554,1.069,1.868,1.256,0.534,0.969,0.905,�k�k��,8.1,�L
2017/04/12,00:20,0.980,1.554,1.068,1.872,1.257,0.535,0.970,0.905,�k�k��,9.4,�L
2017/04/12,00:30,0.979,1.557,1.070,1.872,1.257,0.534,0.970,0.908,�k�k��,8.6,�L
2017/04/12,00:40,0.979,1.556,1.067,1.868,1.256,0.535,0.969,0.906,�k��,8.9,�L
2017/04/12,00:50,0.980,1.554,1.066,1.871,1.255,0.534,0.970,0.905,�k��,8.6,�L
2017/04/12,01:00,0.978,1.557,1.071,1.868,1.257,0.534,0.969,0.906,�k��,6.6,�L
2017/04/12,01:10,0.980,1.556,1.069,1.869,1.257,0.534,0.970,0.907,�k��,6.7,�L
2017/04/12,01:20,0.979,1.558,1.067,1.871,1.258,0.536,0.969,0.907,�k��,7.2,�L
2017/04/12,01:30,0.981,1.559,1.071,1.872,1.259,0.533,0.971,0.907,�k��,6.2,��
2017/04/12,01:40,0.980,1.562,1.070,1.874,1.259,0.536,0.971,0.907,�k��,5.7,��
2017/04/12,01:50,0.982,1.558,1.073,1.877,1.263,0.534,0.972,0.908,�k��,4.8,��
2017/04/12,02:00,0.983,1.561,1.070,1.877,1.263,0.534,0.972,0.908,�k�k��,5.4,��
2017/04/12,02:10,0.980,1.561,1.071,1.879,1.262,0.535,0.974,0.908,�k�k��,5.6,��
2017/04/12,02:20,0.983,1.564,1.072,1.877,1.261,0.535,0.974,0.908,�k�k��,4.2,��
2017/04/12,02:30,0.983,1.560,1.071,1.880,1.265,0.534,0.973,0.909,�k�k��,3.5,��
2017/04/12,02:40,0.982,1.565,1.072,1.879,1.266,0.536,0.973,0.908,�k��,2.6,��
2017/04/12,02:50,0.983,1.566,1.075,1.879,1.265,0.533,0.973,0.908,�k�k��,3.9,��
2017/04/12,03:00,0.986,1.566,1.072,1.882,1.269,0.534,0.973,0.909,�k,3.9,��
2017/04/12,03:10,0.983,1.565,1.073,1.881,1.266,0.536,0.974,0.909,�k�k��,3.0,��
2017/04/12,03:20,0.983,1.566,1.074,1.884,1.269,0.534,0.975,0.910,���k��,0.9,��
2017/04/12,03:30,0.985,1.568,1.074,1.884,1.268,0.534,0.975,0.909,-,CALM,��
2017/04/12,03:40,0.985,1.570,1.074,1.885,1.272,0.536,0.977,0.907,�k��,1.2,��
2017/04/12,03:50,0.984,1.568,1.074,1.884,1.274,0.535,0.975,0.908,�k,1.2,��
2017/04/12,04:00,0.986,1.572,1.071,1.882,1.269,0.535,0.975,0.910,�k,5.0,��
2017/04/12,04:10,0.984,1.570,1.075,1.883,1.269,0.534,0.974,0.907,�k,6.6,��
2017/04/12,04:20,0.985,1.567,1.074,1.888,1.270,0.535,0.977,0.909,�k,3.0,��
2017/04/12,04:30,0.987,1.569,1.073,1.886,1.273,0.536,0.976,0.909,�k�k��,2.3,��
2017/04/12,04:40,0.986,1.567,1.075,1.889,1.274,0.535,0.978,0.910,�k��,5.7,��
2017/04/12,04:50,0.983,1.570,1.076,1.886,1.272,0.535,0.978,0.910,�k��,7.3,��
2017/04/12,05:00,0.986,1.571,1.075,1.887,1.273,0.537,0.979,0.909,�k��,6.2,��
2017/04/12,05:10,0.986,1.569,1.075,1.888,1.274,0.535,0.978,0.910,�k��,7.5,��
2017/04/12,05:20,0.987,1.572,1.077,1.890,1.275,0.538,0.980,0.910,�k��,7.1,��
2017/04/12,05:30,0.988,1.570,1.075,1.890,1.276,0.535,0.978,0.910,�k��,7.6,��
2017/04/12,05:40,0.984,1.571,1.078,1.887,1.273,0.535,0.975,0.911,���k��,7.5,��
2017/04/12,05:50,0.985,1.574,1.077,1.891,1.277,0.536,0.977,0.909,���k��,8.1,��
2017/04/12,06:00,0.989,1.573,1.076,1.890,1.277,0.534,0.979,0.911,���k��,8.1,��
2017/04/12,06:10,0.988,1.573,1.075,1.893,1.276,0.535,0.977,0.911,���k��,8.7,��
2017/04/12,06:20,0.987,1.573,1.077,1.892,1.279,0.536,0.979,0.911,���k��,7.7,��
2017/04/12,06:30,0.987,1.575,1.079,1.898,1.277,0.536,0.979,0.909,�k��,8.9,��
2017/04/12,06:40,0.988,1.577,1.077,1.893,1.280,0.536,0.979,0.911,���k��,6.6,��
2017/04/12,06:50,0.986,1.577,1.078,1.895,1.279,0.536,0.980,0.912,��,5.5,��
2017/04/12,07:00,0.989,1.576,1.079,1.895,1.281,0.537,0.977,0.911,���k��,4.8,��
2017/04/12,07:10,0.988,1.578,1.078,1.896,1.280,0.537,0.981,0.913,���k��,5.1,��
2017/04/12,07:20,0.987,1.578,1.080,1.896,1.277,0.537,0.978,0.914,�k��,5.9,��
2017/04/12,07:30,0.989,1.580,1.081,1.897,1.280,0.536,0.981,0.911,�k��,5.1,��
2017/04/12,07:40,0.989,1.579,1.082,1.896,1.280,0.536,0.979,0.910,�k��,3.5,��
2017/04/12,07:50,0.989,1.579,1.079,1.900,1.281,0.536,0.980,0.911,�k��,3.8,��
2017/04/12,08:00,0.991,1.581,1.079,1.898,1.285,0.536,0.980,0.914,�k��,4.2,��
2017/04/12,08:10,0.991,1.579,1.082,1.900,1.284,0.534,0.980,0.912,�k��,4.5,��
2017/04/12,08:20,0.990,1.580,1.079,1.901,1.285,0.537,0.979,0.912,�k�k��,3.5,��
2017/04/12,08:30,0.990,1.583,1.082,1.902,1.287,0.538,0.981,0.911,�k��,6.5,��
2017/04/12,08:40,0.992,1.582,1.084,1.902,1.287,0.538,0.980,0.912,�k��,7.1,��
2017/04/12,08:50,0.993,1.579,1.084,1.901,1.291,0.535,0.980,0.910,�k��,7.1,��
2017/04/12,09:00,0.994,1.580,1.084,1.903,1.292,0.534,0.978,0.912,�k��,5.0,��
2017/04/12,09:10,0.991,1.581,1.083,1.903,1.289,0.536,0.978,0.911,���k��,2.9,��
2017/04/12,09:20,0.992,1.583,1.083,1.906,1.286,0.537,0.979,0.911,���k��,3.2,��
2017/04/12,09:30,0.991,1.583,1.082,1.909,1.288,0.535,0.980,0.911,���k��,4.0,��
2017/04/12,09:40,0.991,1.582,1.083,1.907,1.291,0.536,0.981,0.910,���k��,4.0,��
2017/04/12,09:50,0.994,1.581,1.085,1.909,1.292,0.537,0.980,0.914,���k��,4.7,��
2017/04/12,10:00,0.992,1.582,1.086,1.908,1.292,0.536,0.978,0.912,���k��,5.3,��
2017/04/12,10:10,0.993,1.581,1.081,1.908,1.290,0.536,0.981,0.912,���k��,6.3,��
2017/04/12,10:20,0.992,1.580,1.078,1.907,1.292,0.536,0.980,0.910,���k��,4.2,��
2017/04/12,10:30,0.994,1.579,1.083,1.909,1.291,0.537,0.981,0.911,���k��,4.9,��
2017/04/12,10:40,0.992,1.578,1.087,1.907,1.295,0.536,0.981,0.911,���k��,4.8,��
2017/04/12,10:50,0.991,1.581,1.085,1.910,1.293,0.535,0.981,0.911,�k��,5.1,�L
2017/04/12,11:00,0.994,1.579,1.086,1.911,1.293,0.536,0.983,0.911,�k��,3.6,��
2017/04/12,11:10,0.994,1.579,1.087,1.910,1.294,0.536,0.982,0.911,�k��,3.8,��
2017/04/12,11:20,0.993,1.582,1.089,1.910,1.291,0.534,0.981,0.912,�k��,6.0,��
2017/04/12,11:30,0.995,1.581,1.088,1.913,1.296,0.535,0.981,0.912,�k��,4.9,��
2017/04/12,11:40,0.994,1.580,1.088,1.913,1.296,0.538,0.984,0.912,�k�k��,3.8,��
2017/04/12,11:50,0.995,1.584,1.088,1.914,1.294,0.536,0.981,0.913,�k,4.2,��
2017/04/12,12:00,0.995,1.581,1.090,1.911,1.294,0.536,0.982,0.911,�k�k��,2.6,��
2017/04/12,12:10,0.993,1.583,1.090,1.911,1.295,0.537,0.983,0.914,�k�k��,2.2,��
2017/04/12,12:20,0.994,1.580,1.090,1.912,1.298,0.538,0.984,0.913,�k,2.3,�L
2017/04/12,12:30,0.995,1.582,1.089,1.916,1.297,0.538,0.983,0.914,�k�k��,3.9,�L
2017/04/12,12:40,0.997,1.583,1.091,1.916,1.295,0.538,0.984,0.916,�k�k��,5.2,��
2017/04/12,12:50,0.997,1.583,1.088,1.914,1.298,0.537,0.984,0.915,�k�k��,5.7,��
2017/04/12,13:00,0.999,1.589,1.089,1.915,1.302,0.536,0.983,0.917,�k�k��,5.7,��
2017/04/12,13:10,1.000,1.587,1.090,1.916,1.298,0.538,0.982,0.917,�k��,4.1,�L
2017/04/12,13:20,0.999,1.590,1.094,1.916,1.300,0.540,0.983,0.916,�k��,4.8,��
2017/04/12,13:30,1.000,1.590,1.091,1.915,1.299,0.539,0.985,0.917,�k��,4.3,�L
2017/04/12,13:40,0.999,1.590,1.091,1.918,1.298,0.539,0.985,0.915,���k��,2.9,�L
2017/04/12,13:50,0.997,1.594,1.090,1.916,1.299,0.539,0.984,0.918,�k��,4.2,�L
2017/04/12,14:00,0.996,1.591,1.090,1.916,1.304,0.539,0.984,0.918,�k��,6.3,�L
2017/04/12,14:10,0.997,1.594,1.093,1.918,1.297,0.539,0.985,0.917,�k�k��,7.0,��
2017/04/12,14:20,0.999,1.594,1.092,1.921,1.300,0.540,0.985,0.917,�k��,7.2,��
2017/04/12,14:30,0.997,1.596,1.091,1.920,1.300,0.538,0.982,0.918,�k��,6.1,��
2017/04/12,14:40,0.999,1.598,1.091,1.922,1.301,0.539,0.982,0.918,�k��,5.9,��
2017/04/12,14:50,0.994,1.594,1.091,1.921,1.300,0.537,0.985,0.917,�k�k��,6.0,��
2017/04/12,15:00,0.997,1.595,1.092,1.922,1.300,0.538,0.985,0.915,�k��,5.3,��
2017/04/12,15:10,0.999,1.596,1.097,1.921,1.302,0.537,0.984,0.913,�k�k��,4.6,��
2017/04/12,15:20,0.998,1.597,1.101,1.920,1.304,0.538,0.986,0.915,�k�k��,3.6,��
2017/04/12,15:30,0.999,1.596,1.101,1.923,1.306,0.539,0.985,0.917,�k�k��,3.9,��
2017/04/12,15:40,0.999,1.600,1.101,1.922,1.305,0.539,0.986,0.915,��,3.6,��
2017/04/12,15:50,0.999,1.603,1.099,1.923,1.305,0.538,0.986,0.914,�k��,3.9,��
2017/04/12,16:00,0.998,1.603,1.093,1.925,1.304,0.540,0.987,0.914,��,6.9,��
2017/04/12,16:10,0.998,1.600,1.097,1.923,1.305,0.538,0.984,0.916,��,4.7,��
2017/04/12,16:20,0.996,1.599,1.095,1.925,1.303,0.538,0.986,0.914,���k��,7.2,��
2017/04/12,16:30,0.997,1.600,1.095,1.923,1.304,0.540,0.986,0.916,��,7.2,��
2017/04/12,16:40,0.999,1.598,1.094,1.921,1.307,0.540,0.986,0.915,���k��,7.4,��
2017/04/12,16:50,0.999,1.602,1.094,1.921,1.306,0.538,0.986,0.914,���k��,5.0,��
2017/04/12,17:00,1.001,1.602,1.094,1.923,1.303,0.539,0.984,0.916,���k��,5.8,��
2017/04/12,17:10,1.000,1.603,1.091,1.926,1.307,0.539,0.985,0.915,���k��,9.4,��
2017/04/12,17:20,0.998,1.602,1.095,1.924,1.309,0.539,0.985,0.920,���k��,9.5,��
2017/04/12,17:30,0.999,1.602,1.095,1.924,1.309,0.540,0.985,0.918,���k��,8.1,��
2017/04/12,17:40,0.999,1.602,1.094,1.924,1.310,0.541,0.985,0.918,���k��,6.2,��
2017/04/12,17:50,0.998,1.600,1.095,1.926,1.310,0.539,0.985,0.918,���k��,5.5,��
2017/04/12,18:00,1.000,1.604,1.093,1.927,1.312,0.539,0.984,0.916,��,6.1,��
2017/04/12,18:10,0.998,1.602,1.091,1.927,1.312,0.540,0.985,0.920,���k��,6.5,��
2017/04/12,18:20,0.999,1.604,1.094,1.924,1.312,0.540,0.985,0.918,���k��,7.4,��
2017/04/12,18:30,0.998,1.602,1.092,1.930,1.307,0.540,0.987,0.916,���k��,7.1,��
2017/04/12,18:40,0.998,1.604,1.095,1.929,1.308,0.540,0.985,0.916,���k��,10.2,��
2017/04/12,18:50,0.998,1.604,1.094,1.927,1.309,0.539,0.983,0.919,�k��,9.3,��
2017/04/12,19:00,0.998,1.604,1.093,1.930,1.312,0.539,0.986,0.919,�k��,9.8,��
2017/04/12,19:10,0.997,1.602,1.093,1.927,1.315,0.541,0.987,0.918,�k�k��,10.2,��
2017/04/12,19:20,0.998,1.602,1.094,1.927,1.311,0.539,0.986,0.917,�k,7.5,��
2017/04/12,19:30,0.997,1.605,1.094,1.928,1.311,0.539,0.984,0.917,�k,4.4,��
2017/04/12,19:40,0.996,1.602,1.094,1.926,1.310,0.538,0.985,0.917,�k�k��,5.9,��
2017/04/12,19:50,0.995,1.604,1.093,1.927,1.312,0.539,0.985,0.918,�k,8.1,��
2017/04/12,20:00,0.998,1.606,1.091,1.927,1.311,0.537,0.987,0.915,�k�k��,9.1,��
2017/04/12,20:10,0.996,1.605,1.092,1.930,1.313,0.538,0.986,0.917,�k�k��,9.0,��
2017/04/12,20:20,0.997,1.603,1.092,1.929,1.311,0.538,0.987,0.918,�k�k��,9.4,��
2017/04/12,20:30,0.996,1.603,1.090,1.927,1.312,0.537,0.988,0.916,�k�k��,7.5,��
2017/04/12,20:40,0.995,1.604,1.092,1.929,1.311,0.538,0.987,0.916,�k,5.5,��
2017/04/12,20:50,0.996,1.604,1.090,1.929,1.311,0.538,0.986,0.915,�k�k��,4.4,��
2017/04/12,21:00,0.996,1.604,1.092,1.929,1.309,0.538,0.989,0.917,�k�k��,5.3,��
2017/04/12,21:10,0.996,1.605,1.092,1.927,1.311,0.537,0.986,0.915,�k�k��,7.1,��
2017/04/12,21:20,0.995,1.603,1.094,1.926,1.312,0.536,0.986,0.916,�k�k��,7.9,��
2017/04/12,21:30,0.997,1.603,1.091,1.927,1.312,0.538,0.987,0.916,�k�k��,9.6,��
2017/04/12,21:40,0.996,1.603,1.092,1.928,1.314,0.538,0.989,0.917,�k�k��,10.3,��
2017/04/12,21:50,0.996,1.605,1.091,1.928,1.311,0.536,0.988,0.917,�k�k��,9.0,��
2017/04/12,22:00,0.996,1.599,1.092,1.927,1.312,0.538,0.986,0.917,�k�k��,8.7,��
2017/04/12,22:10,0.996,1.605,1.090,1.930,1.310,0.536,0.986,0.917,�k�k��,9.1,��
2017/04/12,22:20,0.996,1.604,1.092,1.926,1.313,0.538,0.985,0.917,�k�k��,8.1,��
2017/04/12,22:30,0.993,1.605,1.092,1.932,1.312,0.537,0.987,0.918,�k,7.6,��
2017/04/12,22:40,0.995,1.603,1.092,1.926,1.313,0.536,0.986,0.917,�k�k��,9.8,��
2017/04/12,22:50,0.994,1.607,1.092,1.930,1.315,0.536,0.985,0.919,�k�k��,7.9,��
2017/04/12,23:00,0.995,1.605,1.093,1.927,1.313,0.538,0.988,0.918,�k,6.7,��
2017/04/12,23:10,0.995,1.605,1.092,1.928,1.311,0.538,0.985,0.916,�k,6.5,��
2017/04/12,23:20,0.997,1.603,1.091,1.925,1.311,0.539,0.987,0.917,�k�k��,7.0,��
2017/04/12,23:30,0.994,1.603,1.090,1.931,1.312,0.538,0.986,0.916,�k,7.2,��
2017/04/12,23:40,0.994,1.606,1.093,1.929,1.313,0.538,0.987,0.917,�k,8.2,��
2017/04/12,23:50,0.996,1.606,1.093,1.927,1.314,0.537,0.987,0.917,�k,7.5,��
